Flag for Portugal Weather past 2 weeks in Portimão, Portugal

Now
57 °F

Sunny.


Feels Like: 57 °F
Forecast: N/A
Wind: 2 mph from Southwest

Location: Faro / Aeroporto

Current Time: Dec 26, 2014 at 5:56:29 PM

Latest Report: Dec 26, 2014 at 5:00 PM


Visibility: 10 mi

Pressure: 30.42 "Hg

Humidity: 59%

Dew point: 43 °F

Location of PortimãoLocation

Historic Weather in Portimão — Graph

°F

Portimão temperature yesterday

Maximum temperature yesterday: 64 °F (at 2:00 PM)
Minimum temperature yesterday: 46 °F (at 5:00 AM)
Average temperature yesterday: 54 °F

Past Weeks' High & Low Weather Summary

 TemperatureHumidityPressure
High64 °F (Dec 13, 8:30 AM)100% (Dec 13, 10:00 AM)30.48 "Hg (Dec 13, 10:00 AM)
Low43 °F (Dec 20, 12:00 AM)37% (Dec 25, 2:00 PM)29.68 "Hg (Dec 14, 2:30 AM)
Average55 °F80%30.25 "Hg
* Reported Dec 11 4:00 PM — Dec 26 4:00 PM, Portimão, Weather by CustomWeather, © 2014

Note: Actual official high and low records may vary slightly from our data, if they occured in-between our weather recording intervals... More about our weather records

Advertising

Portimão weather history for previous 24 hours

 ConditionsComfort  
Time TempWeatherWind HumidityBarometerVisibility
4:00 PM
Dec 26
59 °FPassing clouds.3 mph55%30.42 "HgN/A
3:00 PM59 °FSunny.8 mph55%30.42 "Hg10 mi
2:30 PM59 °FSunny.8 mph55%30.42 "Hg10 mi
2:00 PM59 °FPassing clouds.6 mph59%30.42 "HgN/A
1:30 PM61 °FPassing clouds.7 mph55%30.45 "HgN/A
1:00 PM61 °FPassing clouds.5 mph55%30.45 "HgN/A
12:30 PM59 °FSunny.5 mph59%30.45 "Hg10 mi
12:00 PM59 °FPassing clouds.5 mph59%30.48 "HgN/A
11:30 AM59 °FSunny.2 mph59%30.48 "Hg10 mi
11:00 AM57 °FPassing clouds.3 mph63%30.48 "HgN/A
10:30 AM55 °FPassing clouds.5 mph67%30.48 "HgN/A
10:00 AM54 °FSunny.5 mph67%30.48 "Hg10 mi
9:30 AM52 °FSunny.6 mph72%30.48 "Hg10 mi
9:00 AM48 °FSunny.7 mph76%30.45 "Hg10 mi
8:30 AM48 °FSunny.7 mph76%30.45 "Hg10 mi
8:00 AM46 °FSunny.7 mph76%30.45 "Hg10 mi
7:30 AM46 °FClear.7 mph76%30.45 "Hg10 mi
7:00 AM48 °FClear.8 mph76%30.45 "Hg10 mi
6:30 AM48 °FClear.8 mph76%30.42 "Hg10 mi
6:00 AM48 °FClear.9 mph76%30.42 "Hg10 mi
5:30 AM50 °FClear.8 mph71%30.42 "Hg10 mi
5:00 AM50 °FClear.7 mph71%30.42 "Hg10 mi
4:30 AM50 °FClear.8 mph71%30.42 "Hg10 mi
4:00 AM50 °FClear.9 mph71%30.42 "Hg10 mi
3:30 AM50 °FClear.8 mph71%30.42 "Hg10 mi
2:30 AM50 °FClear.9 mph76%30.42 "Hg10 mi
2:00 AM50 °FClear.9 mph76%30.42 "Hg10 mi
1:30 AM52 °FClear.10 mph72%30.42 "Hg10 mi
1:00 AM52 °FClear.9 mph72%30.45 "Hg10 mi
12:30 AM52 °FClear.10 mph72%30.45 "Hg10 mi
12:00 AM52 °FClear.10 mph72%30.45 "Hg10 mi
11:30 PM
Dec 25
52 °FClear.9 mph72%30.45 "Hg10 mi
11:00 PM52 °FClear.9 mph72%30.45 "Hg10 mi
10:00 PM52 °FClear.10 mph77%30.45 "Hg10 mi
9:30 PM52 °FClear.9 mph77%30.45 "Hg10 mi
9:00 PM52 °FClear.3 mph77%30.45 "Hg10 mi
8:30 PM50 °FClear.2 mph76%30.45 "Hg10 mi
8:00 PM52 °FClear.2 mph72%30.45 "Hg10 mi
7:30 PM52 °FClear.2 mph67%30.45 "Hg10 mi
7:00 PM54 °FClear.7 mph63%30.45 "Hg10 mi
6:30 PM54 °FClear.8 mph63%30.45 "Hg10 mi
6:00 PM55 °FClear.9 mph55%30.42 "Hg10 mi
5:30 PM57 °FClear.9 mph51%30.42 "Hg10 mi
5:00 PM59 °FSunny.12 mph45%30.42 "Hg10 mi
Weather by CustomWeather, © 2014

See weather overviewHow to use our weather pages